Wetbulb
63.98 65.88 68.47 70.17 71.53 73.20 74.13 74.18 74.75 75.01 75.15 76.54 76.67 76.76 77.62 78.38 77.88 75.39 75.10 76.55 74.75 74.23 73.67 74.14 77.98 76.96 76.85 78.05 78.35 78.03 78.38 75.72 75.61
63.43 65.62 67.97 69.50 71.19 72.78 74.25 74.45 74.94 75.23 75.79 76.22 76.47 76.37 77.11 77.83 77.81 76.75 76.12 77.53 75.95 74.93 76.53 74.24 76.63 76.29 76.88 77.76 77.07 77.49 79.07 74.98 77.07
63.92 66.24 67.94 68.90 70.75 72.27 74.12 74.94 75.23 75.91 75.89 75.99 76.56 76.49 76.77 76.69 76.68 77.06 77.04 76.78 76.24 75.46 75.41 77.24 76.82 77.32 77.07 77.66 78.19 78.12 78.94 76.16 77.45
64.67 66.15 67.90 68.80 70.20 72.21 73.68 74.95 75.26 75.66 75.78 76.11 76.28 76.34 77.34 77.20 76.49 76.62 76.63 75.83 75.85 76.30 76.46 77.55 76.95 77.77 77.69 77.99 77.52 78.21 78.04 78.77 78.32
65.77 67.93 68.32 68.96 69.80 71.44 72.76 74.18 75.05 75.51 75.80 75.75 76.63 77.94 78.89 76.75 77.04 77.17 76.02 76.05 76.12 76.51 76.15 76.27 77.67 77.75 77.99 77.68 77.60 78.08 77.38 76.03 76.28
66.22 67.24 68.84 69.28 70.10 71.71 72.79 74.03 75.04 75.16 75.95 76.25 76.47 78.32 77.16 76.72 76.68 76.50 76.34 76.36 77.22 77.85 77.43 76.52 75.09 77.40 77.41 77.29 76.76 77.63 77.66 77.92 77.02
65.91 67.50 68.04 70.23 70.37 71.89 73.88 75.51 77.13 77.09 75.95 76.67 77.30 77.11 77.01 77.71 76.77 76.73 76.53 77.74 78.46 78.02 78.24 77.99 77.41 77.50 77.41 76.90 76.98 76.83 77.00 77.56 77.51
66.18 67.50 68.96 69.14 70.40 72.48 74.53 75.70 76.07 76.82 76.05 77.26 77.43 77.70 76.48 77.83 78.86 78.41 79.03 79.51 79.42 79.19 78.67 77.54 78.19 77.66 77.17 77.41 76.03 75.25 77.35 77.37 76.53
68.84 69.61 70.92 72.52 71.25 71.98 73.40 74.55 75.62 76.07 76.35 76.89 78.30 78.64 76.82 78.78 79.51 79.89 79.51 79.64 79.51 79.29 78.25 78.33 78.28 77.63 77.33 77.16 75.09 70.44 69.61 74.63 76.19
69.31 70.78 72.22 73.21 74.22 75.01 74.89 74.43 75.76 75.82 76.49 77.17 77.93 79.48 78.48 78.70 79.47 78.61 79.15 79.08 79.12 78.64 78.35 78.31 78.26 77.66 77.66 77.47 77.66 68.26 66.88 68.89 74.48
68.76 69.15 69.74 70.90 72.74 75.49 75.73 74.60 75.18 76.30 76.77 77.14 77.16 77.14 77.44 78.26 78.89 78.21 78.78 78.84 78.47 78.65 78.08 78.16 77.93 77.35 78.08 77.96 77.30 67.10 65.47 67.32 75.08
68.38 69.07 69.76 70.35 70.96 72.78 75.27 75.39 75.36 75.61 75.78 76.61 76.70 76.49 76.98 77.30 77.45 77.91 78.05 77.71 77.82 78.03 77.38 77.49 77.23 76.86 78.24 78.16 78.01 65.05 64.51 68.16 75.59
67.57 68.45 68.68 68.63 69.55 70.18 73.25 75.67 76.44 75.55 75.32 74.91 75.37 76.23 76.70 77.93 77.88 77.45 77.47 78.63 78.92 79.12 78.98 77.96 77.57 78.07 78.52 73.95 78.22 64.66 62.45 67.68 74.50
66.16 66.51 67.46 68.22 68.78 69.69 71.08 72.70 75.39 75.42 75.43 75.29 75.77 75.90 76.18 77.21 76.97 77.44 77.28 77.14 78.85 78.92 78.27 78.67 78.94 78.36 79.11 78.78 76.90 76.32 60.91 61.28 74.64
64.94 64.60 65.34 65.24 66.26 68.18 70.50 70.75 72.08 71.63 71.99 75.49 76.42 76.92 76.77 76.99 77.39 76.54 76.64 77.25 76.46 71.77 71.79 74.05 76.14 76.25 77.73 78.87 73.30 63.97 58.73 58.29 60.14
62.18 63.89 65.02 64.91 64.30 66.38 68.45 70.02 70.84 70.70 73.44 72.84 73.10 73.14 73.31 73.22 74.02 74.50 76.88 74.03 67.85 68.20 67.06 66.15 64.79 63.92 66.93 72.91 71.28 69.74 58.07 57.50 58.71
60.55 62.26 63.28 64.73 64.63 64.60 65.82 68.68 69.28 70.43 71.63 72.91 73.88 72.35 73.29 72.89 72.24 71.47 73.60 70.10 68.22 66.25 64.70 64.73 64.44 63.75 62.69 65.14 66.90 70.40 68.90 68.09 64.69
61.44 62.42 63.22 64.04 64.84 65.38 65.47 67.25 68.43 69.51 70.61 71.72 71.39 71.59 71.23 72.21 71.69 72.48 72.12 71.55 71.65 70.80 68.48 61.99 64.84 65.97 63.76 62.57 63.04 66.92 61.63 62.14 66.73
61.13 61.76 62.91 63.46 64.25 64.99 65.72 67.56 68.19 68.06 69.04 70.33 70.25 69.12 68.89 68.01 68.76 69.95 70.40 70.29 70.14 53.53 57.60 51.80 49.63 50.72 62.11 65.29 61.12 56.15 53.44 52.71 52.53
60.28 61.52 62.07 62.50 62.98 64.45 65.93 66.72 66.62 69.32 70.43 70.21 69.72 68.42 67.83 67.28 66.41 68.64 68.05 68.54 68.73 68.26 56.20 49.45 49.45 49.27 49.63 50.17 51.60 50.54 49.81 47.25 45.10
MSLP
996.93 997.71 998.93 1000.14 1001.36 1002.59 1004.04 1005.12 1006.33 1007.25 1008.39 1009.57 1010.34 1010.97 1011.64 1012.31 1012.83 1013.06 1013.54 1014.19 1014.32 1014.20 1013.94 1013.95 1014.45 1015.02 1015.49 1015.67 1015.91 1016.10 1016.25 1016.64 1016.71
996.85 997.53 998.42 999.63 1000.77 1002.04 1003.35 1004.39 1005.45 1006.48 1007.55 1008.78 1009.56 1010.16 1010.96 1011.60 1012.19 1012.57 1012.42 1013.27 1013.84 1013.74 1014.15 1014.52 1014.56 1014.83 1015.35 1015.43 1015.74 1016.08 1016.13 1016.28 1016.31
996.82 997.51 998.28 999.28 1000.33 1001.46 1002.57 1003.59 1004.69 1005.90 1006.82 1007.85 1008.67 1009.29 1010.11 1010.76 1011.34 1011.97 1012.27 1012.57 1013.32 1013.59 1013.54 1013.86 1013.98 1014.40 1014.74 1015.10 1015.32 1015.66 1015.97 1015.91 1015.80
996.71 997.40 998.12 999.00 999.90 1000.86 1001.89 1002.91 1003.80 1005.01 1005.97 1006.97 1007.85 1008.46 1009.05 1009.80 1010.46 1011.09 1011.88 1012.00 1012.90 1013.42 1013.40 1013.50 1014.05 1014.32 1014.40 1014.69 1014.93 1015.16 1015.64 1015.70 1015.56
997.23 997.50 998.01 998.73 999.49 1000.30 1001.21 1002.24 1002.97 1003.92 1005.00 1005.83 1006.82 1007.50 1008.27 1009.08 1009.80 1010.36 1010.97 1011.47 1011.91 1012.95 1013.24 1013.40 1013.65 1013.94 1014.29 1014.67 1014.58 1014.89 1015.31 1015.39 1015.32
998.25 998.15 998.19 998.68 999.23 999.97 1000.68 1001.60 1002.42 1002.97 1004.11 1004.89 1005.81 1006.89 1007.74 1008.38 1008.97 1009.64 1010.06 1010.74 1011.14 1011.67 1012.43 1012.94 1013.16 1013.55 1013.91 1014.14 1014.34 1014.64 1014.77 1014.96 1015.16
998.34 998.90 998.91 998.91 999.20 999.99 1000.95 1001.51 1002.37 1002.89 1003.47 1004.31 1005.17 1006.05 1006.98 1007.69 1008.22 1008.71 1009.32 1009.88 1010.59 1010.97 1011.52 1011.98 1012.38 1012.70 1013.12 1013.56 1013.83 1014.09 1014.30 1014.41 1014.67
998.96 999.45 999.56 999.96 999.89 1000.02 1001.00 1001.76 1002.37 1003.24 1003.53 1004.10 1004.70 1005.43 1006.37 1007.15 1007.81 1008.32 1008.87 1009.36 1009.99 1010.62 1011.10 1011.61 1012.03 1012.31 1012.56 1012.95 1013.23 1013.34 1013.56 1013.71 1013.82
1000.35 1001.08 1001.37 1001.29 1001.11 1001.22 1001.53 1001.95 1002.61 1003.18 1003.75 1004.10 1004.56 1005.19 1005.93 1006.73 1007.45 1007.99 1008.44 1008.93 1009.46 1010.11 1010.55 1010.92 1011.32 1011.58 1011.83 1012.10 1012.27 1012.31 1012.68 1012.98 1013.04
1001.96 1002.39 1002.76 1002.68 1002.42 1002.12 1001.97 1002.21 1002.77 1003.26 1003.79 1004.27 1004.80 1005.20 1005.79 1006.39 1007.15 1007.69 1008.15 1008.59 1009.04 1009.42 1009.87 1010.22 1010.48 1010.69 1010.89 1011.07 1011.48 1011.73 1012.10 1012.43 1012.59
1003.50 1003.62 1003.70 1003.72 1003.60 1003.24 1003.12 1002.52 1002.59 1003.40 1003.94 1004.49 1005.00 1005.48 1006.01 1006.37 1006.75 1007.27 1007.64 1007.93 1008.24 1008.73 1009.25 1009.58 1009.91 1010.23 1010.35 1010.53 1010.77 1011.18 1011.64 1012.00 1012.22
1004.64 1004.46 1004.39 1004.14 1004.16 1003.95 1003.76 1003.61 1003.68 1003.87 1004.32 1004.77 1005.11 1005.54 1006.02 1006.31 1006.47 1006.66 1007.11 1007.49 1007.87 1008.30 1008.75 1009.15 1009.54 1009.89 1010.19 1010.37 1010.43 1010.65 1011.13 1011.68 1011.78
1005.23 1004.98 1005.35 1004.89 1004.44 1004.55 1004.55 1004.18 1004.14 1004.43 1004.72 1005.11 1005.27 1005.35 1005.75 1006.11 1006.20 1006.32 1006.60 1007.05 1007.55 1007.94 1008.13 1008.20 1008.30 1008.90 1009.68 1010.25 1010.44 1010.51 1010.78 1011.13 1011.02
1007.08 1006.83 1005.97 1005.62 1005.25 1005.16 1005.18 1005.32 1005.02 1005.12 1005.43 1005.80 1006.16 1006.19 1006.16 1006.15 1006.29 1006.53 1006.98 1007.38 1007.69 1007.85 1008.01 1008.04 1008.32 1008.47 1008.74 1009.34 1009.80 1010.20 1010.57 1010.79 1010.65
1007.27 1007.34 1007.25 1006.72 1005.94 1005.98 1005.92 1005.95 1005.62 1005.85 1006.10 1006.41 1006.45 1006.44 1006.38 1006.35 1006.58 1006.62 1006.94 1006.95 1007.43 1008.02 1008.07 1008.82 1008.91 1009.11 1008.93 1008.93 1009.97 1010.06 1010.62 1010.72 1010.63
1007.90 1007.36 1007.16 1007.09 1006.81 1006.29 1006.39 1006.39 1006.15 1005.89 1006.00 1006.89 1007.37 1007.30 1006.89 1007.00 1007.36 1007.31 1007.22 1007.37 1007.51 1006.55 1008.15 1009.41 1009.20 1009.58 1010.64 1010.79 1010.38 1010.19 1010.41 1010.34 1010.11
1007.74 1007.42 1007.35 1007.20 1007.29 1006.78 1006.83 1007.00 1006.71 1006.39 1006.10 1006.34 1007.20 1007.33 1007.03 1006.91 1007.16 1007.71 1007.71 1007.85 1007.35 1007.31 1009.04 1009.21 1009.40 1009.19 1011.34 1011.02 1012.56 1010.63 1009.91 1010.42 1010.58
1007.42 1006.96 1007.08 1006.85 1006.83 1006.53 1006.38 1007.07 1007.02 1006.27 1005.83 1005.95 1006.80 1006.64 1006.23 1006.21 1006.14 1006.89 1007.43 1007.63 1007.81 1008.05 1008.00 1007.95 1008.04 1007.94 1009.74 1011.33 1009.90 1009.66 1009.36 1010.42 1010.93
1007.09 1007.02 1006.99 1006.69 1006.44 1006.26 1006.33 1006.58 1006.23 1005.75 1005.94 1006.08 1006.39 1005.93 1005.24 1004.97 1004.87 1005.52 1005.95 1006.55 1007.08 1007.75 1007.36 1007.61 1007.99 1008.52 1009.05 1010.39 1010.57 1009.33 1009.68 1010.96 1011.38
1006.12 1006.21 1006.31 1006.40 1006.29 1006.11 1006.14 1006.02 1005.93 1005.77 1005.85 1005.64 1005.60 1005.49 1004.67 1004.92 1004.84 1004.82 1004.79 1005.07 1005.88 1006.62 1007.89 1007.89 1007.60 1008.45 1009.04 1009.14 1008.90 1009.53 1010.48 1011.03 1011.47
Wind_Speed
13 17 18 20 21 19 19 20 20 19 20 19 19 18 17 15 15 11 11 9 11 10 8 8 3 13 11 11 10 10 7 7 9
13 15 18 19 20 19 19 20 21 20 19 19 20 20 16 15 15 15 12 11 11 7 9 5 10 11 12 11 11 8 8 9 8
12 16 17 18 18 20 19 20 19 20 20 20 19 19 17 15 16 15 13 11 10 11 9 8 4 11 12 12 11 10 8 9 10
13 16 16 17 17 19 19 18 19 19 20 20 19 18 16 16 16 16 15 13 12 10 11 8 7 9 10 10 10 11 9 8 10
4 14 15 16 17 18 18 18 18 20 19 20 19 17 14 17 15 15 16 14 14 13 10 8 11 10 10 10 11 10 10 11 11
5 7 13 15 16 16 17 18 17 18 18 18 19 16 17 17 17 16 16 16 13 14 15 13 14 12 11 11 12 11 12 10 10
3 3 5 10 14 14 14 13 12 13 16 17 15 17 17 16 17 17 16 14 13 13 12 13 14 13 13 13 12 12 11 11 11
3 5 5 4 8 10 11 11 11 11 13 13 15 14 17 14 14 14 13 12 13 12 13 13 12 13 13 13 14 13 14 13 12
8 6 7 8 2 3 7 10 11 11 12 12 11 12 14 13 13 12 13 12 13 13 13 13 13 14 14 14 13 14 12 11 12
9 9 9 8 7 8 8 7 8 11 11 11 11 10 12 12 12 13 12 12 13 13 14 13 14 14 14 15 15 11 11 12 13
8 10 11 11 11 10 8 5 7 7 9 9 9 11 11 11 12 13 13 13 14 13 13 13 13 13 14 14 13 13 13 13 12
9 10 10 11 12 13 10 8 4 3 5 7 9 10 11 12 13 13 14 14 13 12 12 12 13 13 13 14 14 15 15 13 13
9 10 9 9 9 11 12 10 6 5 5 5 8 8 9 7 10 10 11 12 11 10 11 12 11 12 12 12 13 11 14 14 11
9 12 11 9 9 7 6 8 7 8 6 6 4 4 4 4 4 4 3 3 5 6 8 10 10 10 10 11 13 12 16 16 12
12 7 9 9 7 5 6 4 2 4 4 1 4 6 7 7 7 7 8 10 6 5 4 6 6 10 9 8 3 8 8 8 6
15 11 8 9 7 8 5 5 4 2 4 3 4 4 5 3 3 2 3 6 7 7 3 2 2 3 8 12 6 7 12 14 15
8 10 7 7 6 8 6 8 4 2 3 2 7 9 10 8 8 8 8 5 5 3 4 6 3 5 5 3 11 6 6 6 6
14 12 11 9 8 4 4 8 8 7 4 3 8 9 8 6 7 7 5 7 4 3 2 2 4 6 4 8 19 10 7 7 9
17 15 14 12 11 9 9 8 6 8 8 8 9 9 8 8 5 4 6 4 4 7 9 6 1 2 15 17 15 10 12 10 11
18 17 17 16 15 13 13 11 12 8 7 10 9 10 9 8 6 7 8 7 5 5 4 5 10 11 9 5 3 5 16 16 9
Wind_Direction
175 180 180 181 183 182 185 185 189 191 185 194 196 199 200 201 206 216 209 200 210 225 246 227 238 177 211 215 204 213 239 226 233
169 178 174 180 179 185 184 190 189 193 188 194 198 199 198 201 203 218 214 180 218 227 212 238 210 180 204 209 216 223 214 233 254
175 177 176 176 180 186 186 195 191 194 194 195 198 202 198 201 203 206 222 206 191 230 211 193 202 190 198 212 201 213 213 244 219
169 180 177 178 184 186 190 195 194 196 196 193 199 200 195 202 202 201 208 211 195 228 221 207 210 205 204 207 207 209 210 248 279
285 179 186 188 190 189 191 194 199 193 200 198 198 195 194 196 200 202 200 212 195 195 218 233 198 210 206 223 215 220 215 225 245
184 246 203 197 191 192 199 192 201 199 198 205 196 195 194 199 199 200 203 202 211 195 194 205 217 207 215 219 224 220 222 227 235
90 198 211 239 206 200 203 204 195 212 198 199 203 190 197 200 202 201 206 198 202 203 204 206 209 214 210 219 224 229 235 229 228
32 60 124 179 252 178 187 206 197 209 215 205 197 193 197 200 203 204 201 200 193 206 199 208 214 216 217 215 222 222 219 229 230
56 32 33 8 16 204 198 200 202 200 212 203 210 192 201 193 194 201 199 200 199 199 208 208 208 216 216 220 227 223 212 220 224
60 62 52 40 30 6 350 187 192 202 200 205 203 192 196 193 190 198 199 200 199 205 208 211 212 215 218 217 221 217 190 197 229
79 73 68 58 41 37 20 337 160 192 183 191 195 198 201 199 192 196 197 200 203 205 209 213 213 219 220 219 218 205 191 189 220
80 72 61 56 50 36 44 46 52 141 164 179 190 196 204 204 203 198 203 205 206 209 213 217 221 225 223 224 224 198 195 192 225
9 41 31 15 35 50 35 30 88 127 149 182 190 198 197 199 209 207 205 205 207 211 218 221 220 217 227 232 236 196 189 194 225
344 345 359 3 23 29 60 30 36 88 116 117 89 65 90 156 200 190 195 220 220 231 235 247 228 236 226 225 218 226 189 194 221
328 340 341 338 354 27 25 20 99 84 35 43 180 175 181 186 188 187 181 179 146 55 45 350 313 277 249 227 140 123 155 168 210
317 311 336 327 335 336 74 45 18 241 148 215 276 227 214 248 326 277 186 156 184 150 198 45 163 97 353 296 234 179 181 180 186
287 311 295 284 296 301 322 326 331 144 179 249 264 251 257 261 215 234 231 241 293 216 189 194 167 296 51 345 304 239 200 223 193
280 279 273 282 267 240 255 276 268 305 269 235 254 266 273 250 232 208 210 245 262 235 196 177 149 90 106 263 267 233 169 211 223
273 272 277 278 275 270 276 261 255 258 257 269 244 249 257 268 284 246 250 249 241 212 205 158 135 109 190 212 232 173 189 231 243
267 265 267 270 272 269 266 261 260 247 239 237 237 254 277 279 257 264 277 255 233 244 245 231 187 178 168 191 286 187 191 182 198